Flag for Germany Weather past 2 weeks in Landsberg am Lech, Bavaria, Germany

Now
55 °F

Partly cloudy.


Feels Like: 55 °F
Forecast: 50 / 64 °F
Wind: 1 mph from Southwest

Location: Landsberg

Current Time: Sep 2, 2014 at 11:48:14 PM

Latest Report: Sep 2, 2014 at 10:20 PM


Visibility: N/A

Pressure: 30.18 "Hg

Humidity: 88%

Dew point: 52 °F

Location of Landsberg am LechLocation

Historic Weather in Landsberg am Lech — Graph

°F

Landsberg am Lech temperature yesterday

Maximum temperature yesterday: 55 °F (at 4:20 PM)
Minimum temperature yesterday: 50 °F (at 2:20 AM)
Average temperature yesterday: 53 °F

Past Weeks' High & Low Weather Summary

 TemperatureHumidityPressure
High72 °F (Aug 29, 4:20 PM)100% (Aug 21, 2:20 AM)30.18 "Hg (Aug 21, 2:20 AM)
Low43 °F (Aug 25, 4:20 AM)43% (Aug 21, 6:20 PM)29.77 "Hg (Aug 26, 6:20 AM)
Average57 °F78%30.04 "Hg
* Reported Aug 18 10:20 PM — Sep 2 10:20 PM, Landsberg am Lech, Weather by CustomWeather, © 2014

Note: Actual official high and low records may vary slightly from our data, if they occured in-between our weather recording intervals... More about our weather records

Advertising

Landsberg am Lech weather history for previous 24 hours

 ConditionsComfort  
Time TempWeatherWind HumidityBarometerVisibility
10:20 PM
Sep 2
55 °FPartly cloudy.1 mph88%30.18 "HgN/A
9:20 PM55 °FPartly cloudy.2 mph88%30.15 "HgN/A
8:20 PM55 °FPartly sunny.2 mph88%30.15 "HgN/A
7:20 PM55 °FBroken clouds.3 mph88%30.15 "HgN/A
6:20 PM57 °FLight rain. Broken clouds.5 mph82%30.15 "HgN/A
5:20 PM57 °FPartly sunny.8 mph77%30.15 "HgN/A
4:20 PM59 °FPartly sunny.6 mph72%30.12 "HgN/A
3:20 PM59 °FBroken clouds.9 mph72%30.15 "HgN/A
2:20 PM61 °FBroken clouds.6 mph68%30.15 "HgN/A
1:20 PM61 °FBroken clouds.2 mph68%30.15 "HgN/A
12:20 PM57 °FBroken clouds.5 mph72%30.15 "HgN/A
11:20 AM57 °FBroken clouds.3 mph77%30.15 "Hg5 mi
10:20 AM55 °FBroken clouds.3 mph82%30.15 "Hg4 mi
9:20 AM54 °FPartly sunny.3 mph88%30.15 "Hg4 mi
8:20 AM52 °FBroken clouds.5 mph94%30.15 "Hg4 mi
7:20 AM52 °FMostly cloudy.2 mph88%30.15 "Hg5 mi
6:20 AM52 °FOvercast.3 mph88%30.15 "Hg5 mi
5:20 AM52 °FPartly cloudy.2 mph88%30.15 "HgN/A
4:20 AM52 °FPassing clouds.2 mph88%30.15 "HgN/A
3:20 AM52 °FPassing clouds.3 mph88%30.15 "HgN/A
2:20 AM52 °FOvercast.5 mph88%30.15 "HgN/A
1:20 AM52 °FOvercast.5 mph88%30.15 "HgN/A
12:20 AM52 °FOvercast.5 mph94%30.18 "HgN/A
11:20 PM
Sep 1
54 °FOvercast.3 mph82%30.18 "HgN/A
Weather by CustomWeather, © 2014

See weather overviewHow to use our weather pages